Weather History for Kendall, FL

Change the Weather History Date:

Wednesday, November 13, 2013

  Actual Average Record
Temperature  
Mean Temperature 74 °F -  
Max Temperature 79 °F 81 °F 84 °F (1997)
Min Temperature 69 °F 63 °F 52 °F (1991)
Cooling Degree Days 9    
Growing Degree Days 24 (Base 50)    
Moisture  
Dew Point 64 °F    
Average Humidity 74    
Maximum Humidity 90    
Minimum Humidity 60    
Precipitation  
Precipitation 0.02 in - - ()
Sea Level Pressure  
Sea Level Pressure 30.09 in    
Wind  
Wind Speed 13 mph (NNE)    
Max Wind Speed 24 mph    
Max Gust Speed 33 mph    
Visibility 10 miles    
Events Rain    
Averages and records for this station are not official NWS values.
T = Trace of Precipitation, MM = Missing Value Source: NWS Daily Summary

Daily Weather History Graph

Daily Weather History Graph

Search for Another Location

Airport:

Trip Planner

Search our weather history database for the weather conditions in past years. The results will help you decide how hot, cold, wet, or windy it might be!

Date:

Astronomy

Nov. 13, 2013 Rise Set
Actual Time 6:38 AM EST 5:33 PM EST
Civil Twilight 6:13 AM EST 5:57 PM EST
Nautical Twilight 5:46 AM EST 6:25 PM EST
Astronomical Twilight 5:18 AM EST 6:52 PM EST
Moon 3:00 PM EST (11/13) 2:52 AM EST (11/13)
Length of Visible Light 11h 43m
Length of Day
10h 55m
Waxing Gibbous, 84% of the Moon is Illuminated
Nov 13
Waxing Gibbous
Nov 17
Full
Nov 25
Last Quarter
Dec 2
New
Dec 9
First Quarter

Hourly Weather History & Observations

Time (EST) Temp. Dew Point Humidity Pressure Visibility Wind Dir Wind Speed Gust Speed Precip Events Conditions
12:53 AM 73.9 °F 69.1 °F 85% 30.03 in 10.0 mi North 8.1 mph - N/A   Mostly Cloudy
1:53 AM 73.9 °F 66.9 °F 79% 30.01 in 10.0 mi NNE 8.1 mph - N/A   Mostly Cloudy
2:53 AM 73.9 °F 64.9 °F 73% 30.00 in 10.0 mi North 8.1 mph - N/A   Overcast
3:53 AM 73.0 °F 64.9 °F 76% 30.00 in 10.0 mi North 11.5 mph - N/A   Partly Cloudy
4:53 AM 73.0 °F 66.0 °F 79% 30.02 in 10.0 mi North 9.2 mph - N/A   Mostly Cloudy
5:53 AM 71.1 °F 66.0 °F 84% 30.03 in 10.0 mi North 10.4 mph 19.6 mph N/A   Clear
6:53 AM 70.0 °F 66.0 °F 87% 30.06 in 10.0 mi North 11.5 mph - N/A   Clear
7:53 AM 71.1 °F 64.0 °F 78% 30.08 in 10.0 mi North 13.8 mph - N/A   Clear
8:53 AM 71.1 °F 62.1 °F 73% 30.10 in 10.0 mi North 17.3 mph 21.9 mph N/A   Clear
9:53 AM 75.0 °F 63.0 °F 66% 30.11 in 10.0 mi North 15.0 mph 23.0 mph N/A   Partly Cloudy
10:53 AM 77.0 °F 64.0 °F 64% 30.10 in 10.0 mi NNE 15.0 mph 24.2 mph N/A   Overcast
11:53 AM 78.1 °F 63.0 °F 60% 30.09 in 10.0 mi North 19.6 mph - N/A   Overcast
12:53 PM 75.9 °F 63.0 °F 64% 30.08 in 10.0 mi North 17.3 mph - N/A   Mostly Cloudy
1:53 PM 79.0 °F 64.9 °F 62% 30.06 in 10.0 mi NE 12.7 mph 23.0 mph N/A   Mostly Cloudy
2:21 PM 75.2 °F 64.4 °F 69% 30.07 in 10.0 mi NE 19.6 mph 31.1 mph N/A   Overcast
2:30 PM 75.2 °F 64.4 °F 69% 30.07 in 10.0 mi NE 19.6 mph 25.3 mph N/A   Overcast
2:53 PM 75.9 °F 66.0 °F 71% 30.06 in 10.0 mi NE 15.0 mph - N/A   Overcast
3:53 PM 73.0 °F 64.9 °F 76% 30.09 in 10.0 mi NNE 19.6 mph 29.9 mph N/A   Overcast
4:53 PM 71.1 °F 66.0 °F 84% 30.10 in 8.0 mi NE 21.9 mph 28.8 mph 0.00 in Rain Light Rain
5:53 PM 69.1 °F 66.0 °F 90% 30.13 in 10.0 mi NNE 15.0 mph 24.2 mph 0.02 in   Overcast
6:53 PM 71.1 °F 64.0 °F 78% 30.15 in 10.0 mi NE 12.7 mph - 0.00 in   Overcast
7:53 PM 71.1 °F 64.0 °F 78% 30.16 in 10.0 mi NNE 8.1 mph - N/A   Overcast
8:53 PM 72.0 °F 62.1 °F 71% 30.17 in 10.0 mi NE 18.4 mph 24.2 mph 0.00 in   Overcast
9:53 PM 72.0 °F 61.0 °F 68% 30.19 in 10.0 mi NE 18.4 mph 32.2 mph N/A   Overcast
10:53 PM 72.0 °F 60.1 °F 66% 30.17 in 10.0 mi NE 24.2 mph 33.4 mph N/A   Overcast
11:53 PM 72.0 °F 59.0 °F 64% 30.16 in 10.0 mi ENE 18.4 mph 24.2 mph N/A   Overcast